WW4HG Weather Reports


time (UTC)temp
F
wind
direction
speed
knots
gust
knots
rain 1hr
in
rain 24hr
in
rain mn
in
humidity
%
barometer
mb
20260505201042 73 141 1.7 2.6 0.00 0.00 0.00 39 1017.3
20260505200540 74 149 0.9 2.6 0.00 0.00 0.00 39 1017.3
20260505200036 74 157 6.1 10.4 0.00 0.00 0.00 39 1017.3
20260505195532 74 136 3.5 4.3 0.00 0.00 0.00 39 1017.3
20260505195030 74 109 2.6 6.1 0.00 0.00 0.00 38 1017.7
20260505194527 74 90 6.1 8.7 0.00 0.00 0.00 38 1018.0
20260505194022 74 189 4.3 6.1 0.00 0.00 0.00 38 1018.0
20260505193520 75 151 3.5 4.3 0.00 0.00 0.00 38 1018.0
20260505193017 75 151 3.5 4.3 0.00 0.00 0.00 38 1018.0
20260505192516 75 154 0.0 0.0 0.00 0.00 0.00 38 1018.4
20260505192013 74 120 2.6 4.3 0.00 0.00 0.00 38 1018.0
20260505191511 74 89 0.0 0.0 0.00 0.00 0.00 39 1018.4
20260505191008 75 154 3.5 4.3 0.00 0.00 0.00 39 1018.4
20260505190503 74 132 0.0 0.0 0.00 0.00 0.00 39 1018.4
20260505185959 74 95 0.0 0.0 0.00 0.00 0.00 39 1018.4
20260505185456 75 48 3.5 4.3 0.00 0.00 0.00 39 1018.4
20260505184952 75 84 4.3 6.1 0.00 0.00 0.00 39 1018.4
20260505184449 75 145 2.6 4.3 0.00 0.00 0.00 39 1018.4
20260505183945 75 149 2.6 6.1 0.00 0.00 0.00 39 1018.0
20260505183443 75 162 3.5 4.3 0.00 0.00 0.00 39 1018.4
20260505182939 75 119 4.3 6.1 0.00 0.00 0.00 40 1018.4
20260505182437 75 99 0.0 0.0 0.00 0.00 0.00 39 1018.4
20260505181932 75 141 0.0 2.6 0.00 0.00 0.00 39 1018.0
20260505181430 75 109 0.9 2.6 0.00 0.00 0.00 39 1018.0
20260505180927 75 49 7.0 10.4 0.00 0.00 0.00 40 1018.4
20260505180423 75 74 6.1 6.1 0.00 0.00 0.00 40 1018.4
20260505175920 75 123 1.7 2.6 0.00 0.00 0.00 39 1018.4
20260505175416 75 341 1.7 4.3 0.00 0.00 0.00 39 1018.4
20260505174912 75 109 0.9 2.6 0.00 0.00 0.00 39 1018.0
20260505174410 75 109 0.0 2.6 0.00 0.00 0.00 39 1018.4
20260505173906 75 122 0.0 0.0 0.00 0.00 0.00 38 1018.4
20260505173402 75 109 0.0 0.0 0.00 0.00 0.00 39 1018.4
20260505172900 75 128 0.9 2.6 0.00 0.00 0.00 38 1018.4
20260505172357 75 83 4.3 6.1 0.00 0.00 0.00 38 1018.4
20260505171857 75 44 5.2 6.1 0.00 0.00 0.00 39 1018.7
20260505171354 75 294 0.0 0.0 0.00 0.00 0.00 38 1018.4
20260505170850 76 128 0.0 2.6 0.00 0.00 0.00 37 1018.7
20260505170348 75 215 0.0 0.0 0.00 0.00 0.00 38 1019.0
20260505165842 75 60 0.9 2.6 0.00 0.00 0.00 38 1019.0
20260505165339 75 181 0.0 0.0 0.00 0.00 0.00 39 1019.0
20260505164834 75 142 0.0 0.0 0.00 0.00 0.00 39 1019.0
20260505164331 75 67 3.5 4.3 0.00 0.00 0.00 38 1019.0
20260505163829 75 169 0.0 2.6 0.00 0.00 0.00 38 1019.4
20260505163328 75 154 0.0 0.0 0.00 0.00 0.00 38 1019.4
20260505162826 75 115 2.6 4.3 0.00 0.00 0.00 39 1019.4
20260505162322 75 120 0.0 0.0 0.00 0.00 0.00 39 1019.4
20260505161819 75 31 0.9 2.6 0.00 0.00 0.00 41 1019.7
20260505161316 74 177 0.0 0.0 0.00 0.00 0.00 40 1019.4
20260505160814 74 109 0.0 2.6 0.00 0.00 0.00 40 1019.4
20260505160312 74 137 0.0 0.0 0.00 0.00 0.00 40 1019.4
20260505153250 74 70 0.0 0.0 0.00 0.00 0.00 42 1019.4
20260505152747 74 35 0.0 2.6 0.00 0.00 0.00 42 1019.4
20260505152244 74 140 0.0 0.0 0.00 0.00 0.00 41 1019.7
20260505151738 74 127 0.0 0.0 0.00 0.00 0.00 42 1019.4
20260505151236 74 109 1.7 2.6 0.00 0.00 0.00 41 1019.7
20260505150732 74 188 0.0 0.0 0.00 0.00 0.00 42 1019.7
20260505150230 74 126 0.0 0.0 0.00 0.00 0.00 42 1019.7
20260505140154 72 125 0.0 0.0 0.00 0.00 0.00 47 1019.7
20260505130118 68 178 0.0 0.0 0.00 0.00 0.00 51 1019.7
20260505124607 67 115 0.0 0.0 0.00 0.00 0.00 54 1019.4
20260505124103 67 145 0.0 0.0 0.00 0.00 0.00 55 1019.7
20260505123600 66 109 0.0 0.0 0.00 0.00 0.00 56 1019.4
20260505123056 66 0 0.0 0.0 0.00 0.00 0.00 52 1019.4
20260505122553 64 0 0.0 0.0 0.00 0.00 0.00 54 1019.4
20260505122050 63 0 0.0 0.0 0.00 0.00 0.00 56 1019.7
20260505121547 61 0 0.0 0.0 0.00 0.00 0.00 57 1019.4
20260505121044 60 0 0.0 0.0 0.00 0.00 0.00 62 1019.4
20260505120540 59 0 0.0 0.0 0.00 0.00 0.00 66 1019.4
20260505120036 57 0 0.0 0.0 0.00 0.00 0.00 71 1019.4
20260505115530 57 0 0.0 0.0 0.00 0.00 0.00 75 1019.4
20260505115028 56 0 0.0 0.0 0.00 0.00 0.00 78 1019.4
20260505114525 55 0 0.0 0.0 0.00 0.00 0.00 81 1019.4
20260505114022 53 0 0.0 0.0 0.00 0.00 0.00 83 1019.4
20260505113518 52 0 0.0 0.0 0.00 0.00 0.00 84 1019.4
20260505113015 51 0 0.0 0.0 0.00 0.00 0.00 84 1019.4
20260505112511 51 0 0.0 0.0 0.00 0.00 0.00 84 1019.0
20260505112009 50 0 0.0 0.0 0.00 0.00 0.00 84 1019.0
20260505111502 50 0 0.0 0.0 0.00 0.00 0.00 84 1019.0
20260505110959 49 0 0.0 0.0 0.00 0.00 0.00 85 1019.4
20260505110455 49 0 0.0 0.0 0.00 0.00 0.00 85 1019.0
20260505101927 50 0 0.0 0.0 0.00 0.00 0.00 84 1018.4
20260505101421 50 0 0.0 0.0 0.00 0.00 0.00 84 1018.4
20260505100917 50 0 0.0 0.0 0.00 0.00 0.00 84 1018.4
20260505100414 50 0 0.0 0.0 0.00 0.00 0.00 84 1018.4
20260505095910 50 0 0.0 0.0 0.00 0.00 0.00 84 1018.0
20260505095407 50 0 0.0 0.0 0.00 0.00 0.00 84 1018.0
20260505094903 50 0 0.0 0.0 0.00 0.00 0.00 83 1018.0
20260505094400 50 0 0.0 0.0 0.00 0.00 0.00 83 1018.0
20260505093856 50 0 0.0 0.0 0.00 0.00 0.00 83 1018.0
20260505093353 50 0 0.0 0.0 0.00 0.00 0.00 83 1017.7
20260505092850 50 0 0.0 0.0 0.00 0.00 0.00 83 1018.0
20260505092348 50 0 0.0 0.0 0.00 0.00 0.00 83 1018.0
20260505091845 50 0 0.0 0.0 0.00 0.00 0.00 83 1017.7
20260505091343 50 0 0.0 0.0 0.00 0.00 0.00 83 1018.0
20260505090841 51 0 0.0 0.0 0.00 0.00 0.00 83 1017.7
20260505090339 51 0 0.0 0.0 0.00 0.00 0.00 83 1017.7
20260505085836 51 0 0.0 0.0 0.00 0.00 0.00 82 1017.7
20260505085334 51 0 0.0 0.0 0.00 0.00 0.00 82 1017.7
20260505084831 51 0 0.0 0.0 0.00 0.00 0.00 82 1017.7
20260505084330 51 0 0.0 0.0 0.00 0.00 0.00 82 1017.7
20260505083826 51 0 0.0 0.0 0.00 0.00 0.00 81 1017.3
20260505083324 51 0 0.0 0.0 0.00 0.00 0.00 81 1017.3
20260505082820 51 0 0.0 0.0 0.00 0.00 0.00 81 1017.3
20260505082317 51 0 0.0 0.0 0.00 0.00 0.00 81 1017.7
20260505081814 51 0 0.0 0.0 0.00 0.00 0.00 81 1017.3
20260505081310 51 0 0.0 0.0 0.00 0.00 0.00 80 1017.7
20260505080807 51 0 0.0 0.0 0.00 0.00 0.00 80 1017.3
20260505080303 51 0 0.0 0.0 0.00 0.00 0.00 80 1017.3
20260505075758 51 0 0.0 0.0 0.00 0.00 0.00 80 1017.3
20260505075256 51 0 0.0 0.0 0.00 0.00 0.00 80 1017.3
20260505074753 52 0 0.0 0.0 0.00 0.00 0.00 80 1017.3
20260505074250 52 0 0.0 0.0 0.00 0.00 0.00 80 1017.3
20260505073748 52 0 0.0 0.0 0.00 0.00 0.00 80 1017.0
20260505073245 52 0 0.0 0.0 0.00 0.00 0.00 80 1017.0
20260505072742 52 0 0.0 0.0 0.00 0.00 0.00 79 1017.0
20260505072238 52 0 0.0 0.0 0.00 0.00 0.00 79 1017.3
20260505071734 52 0 0.0 0.0 0.00 0.00 0.00 79 1017.3
20260505071231 52 0 0.0 0.0 0.00 0.00 0.00 79 1017.3
20260505070728 52 0 0.0 0.0 0.00 0.00 0.00 79 1017.0
20260505070224 52 0 0.0 0.0 0.00 0.00 0.00 78 1017.3
20260505065720 52 0 0.0 0.0 0.00 0.00 0.00 78 1017.0
20260505065217 52 0 0.0 0.0 0.00 0.00 0.00 78 1017.0
20260505064714 52 0 0.0 0.0 0.00 0.00 0.00 78 1017.3
20260505064212 52 0 0.0 0.0 0.00 0.00 0.00 77 1017.3
20260505063709 52 0 0.0 0.0 0.00 0.00 0.00 77 1017.7
20260505063205 52 0 0.0 0.0 0.00 0.00 0.00 77 1017.3
20260505062701 52 0 0.0 0.0 0.00 0.00 0.00 76 1017.7
20260505062200 52 0 0.0 0.0 0.00 0.00 0.00 76 1017.7
20260505061656 52 0 0.0 0.0 0.00 0.00 0.00 76 1017.7
20260505061154 53 0 0.0 0.0 0.00 0.00 0.00 76 1017.7
20260505060651 53 0 0.0 0.0 0.00 0.00 0.00 74 1017.7
20260505060148 53 0 0.0 0.0 0.00 0.00 0.00 74 1018.0
20260505055643 53 0 0.0 0.0 0.00 0.00 0.00 74 1018.0
20260505055140 53 0 0.0 0.0 0.00 0.00 0.00 73 1018.0
20260505054638 53 0 0.0 0.0 0.00 0.00 0.00 74 1018.0
20260505054136 53 0 0.0 0.0 0.00 0.00 0.00 73 1018.4
20260505053633 53 0 0.0 0.0 0.00 0.00 0.00 73 1018.4
20260505053129 53 0 0.0 0.0 0.00 0.00 0.00 72 1018.0
20260505052626 53 0 0.0 0.0 0.00 0.00 0.00 72 1018.4
20260505052124 53 0 0.0 0.0 0.00 0.00 0.00 72 1018.4
20260505051621 53 0 0.0 0.0 0.00 0.00 0.00 71 1018.4
20260505051119 53 0 0.0 0.0 0.00 0.00 0.00 71 1018.4
20260505050616 53 0 0.0 0.0 0.00 0.00 0.00 71 1018.4
20260505050114 53 0 0.0 0.0 0.00 0.00 0.00 70 1018.7
20260505041544 54 0 0.0 0.0 0.00 0.00 0.00 66 1018.4
20260505041041 54 0 0.0 0.0 0.00 0.00 0.00 65 1018.4
20260505040538 55 0 0.0 0.0 0.00 0.00 0.00 65 1018.4
20260505040036 55 0 0.0 0.0 0.00 0.00 0.00 64 1018.7
20260505035531 55 0 0.0 0.0 0.00 0.00 0.00 64 1018.7
20260505035028 55 0 0.0 0.0 0.00 0.00 0.00 64 1018.4
20260505034525 55 0 0.0 0.0 0.00 0.00 0.00 64 1018.7
20260505034022 56 0 0.0 0.0 0.00 0.00 0.00 63 1018.4
20260505033519 56 0 0.0 0.0 0.00 0.00 0.00 63 1018.7
20260505033017 56 0 0.0 0.0 0.00 0.00 0.00 63 1018.4
20260505032514 57 0 0.0 0.0 0.00 0.00 0.00 62 1018.4
20260505032010 57 0 0.0 0.0 0.00 0.00 0.00 61 1018.7
20260505031508 57 0 0.0 0.0 0.00 0.00 0.00 60 1018.4
20260505031004 57 0 0.0 0.0 0.00 0.00 0.00 60 1018.4
20260505030501 58 0 0.0 0.0 0.00 0.00 0.00 59 1018.4
20260505025956 58 0 0.0 0.0 0.00 0.00 0.00 58 1018.4
20260505025453 58 0 0.0 0.0 0.00 0.00 0.00 57 1018.4
20260505024952 59 0 0.0 0.0 0.00 0.00 0.00 56 1018.4
20260505024449 59 0 0.0 0.0 0.00 0.00 0.00 55 1018.4
20260505023946 59 0 0.0 0.0 0.00 0.00 0.00 55 1018.4
20260505023443 59 0 0.0 0.0 0.00 0.00 0.00 54 1018.7
20260505022940 60 0 0.0 0.0 0.00 0.00 0.00 54 1018.4
20260505022438 60 0 0.0 0.0 0.00 0.00 0.00 53 1018.4
20260505021935 60 0 0.0 0.0 0.00 0.00 0.00 53 1018.4
20260505021431 60 0 0.0 0.0 0.00 0.00 0.00 53 1018.4
20260505020927 61 0 0.0 0.0 0.00 0.00 0.00 52 1018.4
20260505020422 61 0 0.0 0.0 0.00 0.00 0.00 52 1018.4
20260505015919 62 0 0.0 0.0 0.00 0.00 0.00 52 1018.4
20260505015417 62 0 0.0 0.0 0.00 0.00 0.00 51 1018.4
20260505014914 62 0 0.0 0.0 0.00 0.00 0.00 51 1018.4
20260505014411 62 0 0.0 0.0 0.00 0.00 0.00 49 1018.4
20260505013908 62 0 0.0 0.0 0.00 0.00 0.00 47 1018.4
20260505013404 63 0 0.0 0.0 0.00 0.00 0.00 46 1018.4
20260505012903 63 0 0.0 0.0 0.00 0.00 0.00 44 1018.0
20260505012400 63 0 0.0 0.0 0.00 0.00 0.00 43 1018.0
20260505011856 63 0 0.0 0.0 0.00 0.00 0.00 43 1018.0
20260505011353 64 0 0.0 0.0 0.00 0.00 0.00 42 1018.0
20260505010849 64 0 0.0 0.0 0.00 0.00 0.00 42 1017.7
20260505010345 64 0 0.0 0.0 0.00 0.00 0.00 41 1018.0
20260505005842 64 164 0.0 0.0 0.00 0.00 0.00 43 1018.0
20260505005338 64 162 0.0 0.0 0.00 0.00 0.00 42 1017.7
20260505004836 64 114 0.0 0.0 0.00 0.00 0.00 42 1017.7
20260505004332 65 144 0.0 0.0 0.00 0.00 0.00 42 1017.7
20260505003830 65 179 0.0 0.0 0.00 0.00 0.00 42 1017.7
20260505003327 65 180 0.0 0.0 0.00 0.00 0.00 41 1017.7
20260505002822 66 151 0.0 0.0 0.00 0.00 0.00 41 1017.7
20260505002320 66 134 0.0 0.0 0.00 0.00 0.00 39 1017.7
20260505001818 66 138 0.0 0.0 0.00 0.00 0.00 39 1017.7
20260505001315 66 145 0.0 0.0 0.00 0.00 0.00 39 1017.7
20260505000812 67 98 3.5 4.3 0.00 0.00 0.00 39 1017.7
20260505000310 67 109 0.0 0.0 0.00 0.00 0.00 39 1017.3
20260504235806 67 150 0.0 0.0 0.00 0.00 0.00 39 1017.3
20260504235304 67 179 0.0 0.0 0.00 0.00 0.00 39 1017.7
20260504234800 68 53 0.0 0.0 0.00 0.00 0.00 38 1017.3
20260504234258 68 122 0.0 0.0 0.00 0.00 0.00 37 1017.3
20260504233753 68 120 0.0 0.0 0.00 0.00 0.00 37 1017.7
20260504233249 68 125 0.0 0.0 0.00 0.00 0.00 37 1017.3
20260504232746 68 122 0.0 0.0 0.00 0.00 0.00 37 1017.0
20260504232243 69 109 1.7 2.6 0.00 0.00 0.00 37 1017.3
20260504231740 69 136 0.0 0.0 0.00 0.00 0.00 37 1017.3
20260504231237 69 137 0.0 0.0 0.00 0.00 0.00 36 1017.3
20260504230732 69 180 0.0 0.0 0.00 0.00 0.00 36 1017.3
20260504230231 69 183 0.0 0.0 0.00 0.00 0.00 36 1017.3
20260504225730 69 109 0.0 0.0 0.00 0.00 0.00 36 1017.3
20260504225225 69 185 0.0 0.0 0.00 0.00 0.00 36 1017.3
20260504224723 70 109 0.0 0.0 0.00 0.00 0.00 35 1017.3
20260504224220 70 145 0.0 0.0 0.00 0.00 0.00 35 1017.7
20260504223716 70 101 2.6 4.3 0.00 0.00 0.00 35 1017.3
20260504223212 70 154 0.0 0.0 0.00 0.00 0.00 35 1017.3
20260504222709 70 172 0.0 0.0 0.00 0.00 0.00 35 1017.7
20260504222206 70 151 0.9 2.6 0.00 0.00 0.00 35 1017.3
20260504221703 70 142 0.0 0.0 0.00 0.00 0.00 35 1017.3
20260504221201 70 127 0.0 0.0 0.00 0.00 0.00 35 1017.3
20260504220656 70 147 2.6 4.3 0.00 0.00 0.00 35 1017.3
20260504220155 70 103 0.9 2.6 0.00 0.00 0.00 34 1017.3
20260504215651 70 111 2.6 4.3 0.00 0.00 0.00 35 1017.3
20260504215148 71 113 1.7 2.6 0.00 0.00 0.00 34 1017.3
20260504214644 71 87 2.6 4.3 0.00 0.00 0.00 33 1017.0
20260504214140 71 115 2.6 4.3 0.00 0.00 0.00 34 1017.3
20260504213637 71 135 1.7 2.6 0.00 0.00 0.00 33 1017.0
20260504213134 71 134 0.9 2.6 0.00 0.00 0.00 33 1017.0
20260504212630 71 86 0.0 2.6 0.00 0.00 0.00 34 1017.0
20260504212127 71 52 0.9 2.6 0.00 0.00 0.00 34 1017.0
20260504211625 71 226 1.7 2.6 0.00 0.00 0.00 33 1017.3
20260504211120 71 113 0.0 2.6 0.00 0.00 0.00 33 1017.0
20260504210618 72 149 2.6 4.3 0.00 0.00 0.00 33 1017.0
20260504210109 72 111 1.7 4.3 0.00 0.00 0.00 33 1017.0
20260504205607 72 93 4.3 6.1 0.00 0.00 0.00 33 1017.0
20260504205104 72 216 2.6 4.3 0.00 0.00 0.00 33 1017.0
20260504204602 72 167 3.5 4.3 0.00 0.00 0.00 33 1017.3
20260504204101 73 109 2.6 4.3 0.00 0.00 0.00 32 1017.0
20260504203559 73 80 6.1 8.7 0.00 0.00 0.00 32 1017.0
20260504203056 73 116 0.0 0.0 0.00 0.00 0.00 34 1017.0
20260504202551 73 154 3.5 4.3 0.00 0.00 0.00 34 1017.3
20260504202049 73 97 2.6 2.6 0.00 0.00 0.00 34 1017.3
20260504201545 73 112 2.6 2.6 0.00 0.00 0.00 34 1017.3